Lapse_Rate
6.6 6.4 6.5 6.5 5.4 5.6 5.3 5.3 4.2 3.2 1.9 1.2 0.7 0.3 -0.1 -0.8 0.0 5.8 8.0 6.0 5.2 3.2 3.1 5.9 6.6 6.3 6.6 6.9 6.5 5.8 6.5 6.5 6.5 6.5 6.5 7.3 6.7 7.8 8.3 7.7 8.0 8.4 8.3 8.3 8.2
6.2 6.1 6.0 5.7 5.4 5.3 4.8 4.6 3.7 3.0 1.7 1.1 0.6 0.2 -0.3 -0.8 5.3 8.6 5.3 4.0 3.5 3.1 6.6 7.1 7.6 7.1 7.7 7.7 7.7 6.9 6.5 6.5 6.6 6.7 6.5 7.0 7.1 7.3 7.2 7.3 7.5 8.0 8.7 8.9 9.0
5.8 5.8 5.7 5.5 5.3 5.2 4.7 4.0 3.1 2.5 1.7 1.0 0.5 -0.2 -0.8 0.0 6.9 7.8 4.5 4.2 3.7 3.9 5.4 6.0 6.4 7.5 7.2 7.6 7.4 7.0 6.5 6.6 6.9 7.3 7.4 7.0 7.1 7.7 7.0 6.5 7.6 7.5 8.2 8.7 8.8
5.6 5.3 5.2 5.0 4.8 4.5 4.3 3.3 2.7 2.1 1.6 0.8 0.1 -0.6 -1.1 3.5 6.5 7.4 4.3 4.0 3.8 5.1 6.5 7.0 7.6 7.4 6.8 6.5 7.5 6.5 7.0 7.1 7.2 7.4 7.3 6.8 7.5 7.2 7.5 7.5 8.3 8.4 8.6 8.7 8.7
5.5 5.0 4.6 4.5 4.3 4.1 3.6 2.6 2.4 1.9 1.2 0.3 -0.3 -0.6 2.9 7.6 7.8 6.9 4.4 5.1 6.3 6.4 6.4 6.9 7.7 7.4 6.5 6.9 7.1 6.5 6.8 7.3 7.5 7.5 7.5 7.6 7.1 7.1 7.4 8.2 8.6 8.6 8.5 8.5 8.7
5.2 4.7 4.3 4.1 3.6 3.4 2.6 2.2 2.0 1.4 0.6 -0.1 -0.5 -0.7 5.2 6.9 7.0 6.5 5.7 5.7 6.1 6.8 6.6 7.5 7.9 7.4 7.3 7.0 6.7 7.1 7.0 7.1 7.4 7.3 7.5 6.9 7.0 7.3 7.6 8.3 8.2 8.3 8.4 8.6 8.6
4.5 4.3 4.1 3.3 3.4 2.5 2.1 1.9 1.4 0.8 0.1 -0.4 -0.4 2.8 7.3 7.6 6.9 7.1 6.5 6.7 6.5 7.1 7.1 6.6 6.8 7.9 7.7 6.7 7.6 7.2 6.5 6.6 6.9 7.1 6.9 7.4 6.5 6.5 7.8 8.1 7.9 8.1 8.4 8.5 8.7
3.7 3.7 3.4 3.3 2.5 1.7 1.8 1.3 0.7 0.2 -0.3 -0.3 -0.1 4.2 7.7 7.1 7.0 7.4 7.7 7.7 7.4 7.2 6.7 6.4 6.9 7.0 7.6 7.8 7.1 6.5 6.5 6.5 6.5 6.9 7.1 7.0 6.5 6.9 7.9 7.8 7.6 7.9 8.3 8.4 8.6
3.1 2.8 3.2 2.6 1.4 1.4 1.2 0.7 0.4 0.3 0.3 0.5 4.4 6.6 7.4 7.1 8.0 7.5 7.7 7.6 7.4 7.2 6.7 6.8 6.8 7.5 7.4 6.5 6.5 6.5 6.5 6.5 6.5 6.9 6.6 6.5 6.5 7.0 7.9 7.7 7.5 7.8 8.1 8.3 8.5
2.5 2.7 2.2 1.1 1.0 1.1 0.8 0.4 1.3 1.6 3.0 3.8 5.0 7.3 7.7 7.8 7.4 7.2 7.8 7.2 7.5 7.3 7.8 7.8 7.5 6.5 6.5 6.5 6.5 6.5 6.5 6.5 6.5 6.5 6.5 6.5 6.5 6.8 7.6 7.6 7.5 7.7 8.0 8.1 8.3
2.2 1.5 0.8 0.7 0.9 0.8 2.4 6.0 7.4 7.3 8.0 7.6 7.5 7.5 7.5 7.6 7.4 7.9 7.1 7.6 7.7 7.8 6.5 7.2 6.5 6.5 6.5 6.5 6.5 6.5 6.5 6.5 6.5 6.5 6.5 6.5 6.5 6.5 7.3 7.4 7.3 7.6 7.8 8.0 8.2
1.1 0.9 0.6 0.7 0.7 0.5 3.5 7.9 5.9 6.3 7.2 6.9 6.8 7.3 7.0 7.3 7.6 8.1 7.7 7.6 7.2 6.5 6.8 6.5 6.5 6.5 6.5 6.5 6.5 6.5 6.5 6.5 6.5 6.5 6.5 6.5 6.5 6.5 7.1 7.1 7.5 7.5 7.7 7.9 8.2
0.7 0.6 0.6 0.6 0.6 2.8 6.0 5.8 4.1 4.9 7.1 7.4 7.3 7.9 7.8 7.9 7.4 7.6 7.9 7.7 6.8 6.5 6.5 6.5 6.5 6.8 6.5 6.5 6.5 6.5 6.5 6.5 6.5 6.5 6.5 6.5 6.5 6.5 6.7 7.3 7.6 7.9 8.0 8.1 8.1
0.4 0.3 0.5 0.7 2.9 5.5 6.5 4.6 3.9 4.7 6.5 6.5 6.9 7.6 7.9 7.5 7.0 6.7 6.5 7.4 6.9 6.5 6.5 6.5 6.7 6.5 6.5 6.5 6.5 6.5 6.5 6.5 6.5 6.5 6.5 6.5 6.5 6.5 6.5 6.5 7.0 7.5 7.8 8.0 8.2
0.4 0.4 0.8 0.7 6.7 6.9 5.1 4.1 4.3 6.1 6.5 6.5 6.9 8.2 7.6 7.3 7.4 7.0 5.9 7.5 6.5 6.5 6.5 6.5 6.5 6.5 6.5 6.5 6.5 6.5 6.5 6.5 6.5 6.5 6.5 6.5 6.5 6.5 6.5 6.5 6.5 7.2 7.6 8.0 8.3
0.7 0.9 1.0 3.5 5.7 4.2 3.6 4.2 6.1 6.5 6.5 6.5 7.0 6.7 6.7 7.1 7.1 7.5 7.5 7.3 7.3 6.5 6.5 6.5 7.2 6.6 6.5 6.5 6.5 6.5 6.5 6.5 6.5 6.5 6.5 6.5 6.5 6.5 6.5 6.5 6.5 7.2 7.6 7.9 8.2
0.9 0.8 2.6 4.1 6.5 3.1 3.8 6.8 6.5 6.5 6.5 6.5 6.5 6.5 6.5 6.5 6.5 6.6 6.5 6.5 6.5 6.5 6.5 6.5 6.5 6.7 6.9 6.5 6.5 6.5 6.5 6.5 6.5 6.5 6.5 6.5 6.5 6.5 6.5 6.5 6.7 7.0 7.6 8.0 8.3
0.8 1.5 2.6 2.8 2.7 3.1 6.2 6.7 6.5 6.5 6.5 6.5 6.5 6.5 6.5 6.5 6.5 6.5 6.5 6.5 6.5 6.5 6.5 6.5 6.5 6.5 6.6 6.5 6.5 6.5 6.5 6.5 6.5 6.5 6.5 6.5 6.5 6.5 6.5 7.1 7.4 7.7 7.8 8.0 8.1
2.0 5.6 5.9 4.8 2.5 4.4 7.9 6.5 6.5 6.5 6.5 6.5 6.5 6.5 6.5 6.5 6.5 6.5 6.5 6.5 6.5 6.5 6.5 6.5 6.5 6.5 6.5 6.7 6.5 6.5 6.5 6.5 6.5 6.5 6.5 6.5 6.5 6.5 6.5 6.5 7.1 7.4 7.6 7.7 8.0
6.9 6.9 6.1 2.7 2.7 7.0 6.7 6.5 6.5 6.7 6.7 6.5 6.5 6.5 6.5 6.5 6.5 6.5 6.5 6.5 6.5 6.7 7.0 6.5 6.5 6.5 6.5 6.8 6.7 6.5 6.5 6.5 6.5 6.5 6.5 6.5 6.5 6.5 6.5 6.5 6.5 6.9 7.4 7.7 8.0
7.1 7.8 5.8 2.9 5.3 7.9 6.5 6.5 6.5 7.2 7.1 6.5 6.5 6.5 6.5 6.5 6.5 6.5 6.5 6.5 6.6 6.5 6.9 6.5 6.5 6.5 6.5 6.5 6.5 6.5 6.5 6.5 6.5 6.5 6.5 6.5 6.5 6.5 6.5 6.5 6.5 7.1 7.6 7.8 8.0
6.5 6.7 5.1 4.6 7.1 7.2 6.5 6.5 6.5 6.8 7.4 6.8 6.7 6.5 6.5 6.5 6.5 6.5 6.5 6.5 7.2 7.0 6.5 6.6 6.5 6.5 6.5 6.5 6.6 6.5 6.5 6.5 6.5 6.5 6.5 6.5 6.5 6.5 6.5 6.8 7.0 7.2 7.5 7.9 8.1
7.6 7.4 5.3 5.9 6.5 6.5 6.8 6.5 6.9 6.6 6.6 6.5 6.5 6.6 6.6 6.5 6.5 6.5 6.5 7.0 7.2 6.7 6.5 6.5 6.5 6.5 6.5 6.5 6.5 6.5 6.5 6.5 6.5 6.5 6.5 6.5 6.5 6.5 6.8 6.8 7.2 7.2 7.6 7.9 8.2
6.8 6.5 7.4 6.3 6.2 6.6 6.5 6.5 6.5 7.1 6.9 7.0 6.6 6.8 6.5 6.5 6.5 6.5 6.5 6.7 7.2 7.0 7.1 6.9 6.5 6.5 6.5 6.5 6.5 6.5 6.5 6.5 6.5 6.5 6.5 6.5 6.5 6.5 6.5 6.5 7.0 7.3 7.7 7.9 8.1
4.6 6.7 4.8 6.5 6.7 6.8 6.7 6.5 6.5 6.5 7.0 7.2 6.5 6.5 6.5 6.5 6.5 6.5 6.5 6.5 6.9 7.1 7.0 6.6 6.5 6.5 6.5 6.5 6.5 6.5 6.5 6.5 6.5 6.5 6.5 6.5 6.5 6.5 6.5 6.5 7.2 7.5 7.7 7.7 7.9
7.3 7.2 6.2 7.2 7.3 6.7 6.4 6.5 6.5 6.5 6.6 6.5 6.5 6.5 6.5 6.5 6.5 6.5 6.5 6.5 6.5 6.8 6.5 6.6 6.5 6.5 6.5 6.5 6.5 6.5 6.5 6.5 6.5 6.5 6.5 6.5 6.5 6.5 7.2 7.3 7.2 7.4 7.5 7.6 7.8
0.7 2.0 6.7 5.9 6.8 6.5 6.5 6.5 6.5 6.8 7.0 7.1 6.8 6.5 6.5 6.6 7.2 7.3 7.4 7.3 6.9 6.5 6.5 6.5 6.5 6.5 6.5 6.5 6.5 6.5 6.5 6.5 6.5 6.5 6.5 6.5 6.5 6.7 6.5 6.9 7.2 7.4 7.6 7.7 7.9
Wind_Speed
3 5 4 2 2 2 5 6 8 9 9 11 13 14 15 17 19 4 2 6 6 14 11 6 3 2 2 3 4 1 1 2 3 2 6 3 4 6 3 7 9 8 10 10 12
3 3 2 2 1 3 5 6 8 9 9 10 12 13 13 14 3 6 4 7 8 10 4 4 2 3 3 3 2 2 1 3 3 5 3 2 3 6 1 5 8 10 11 10 8
1 3 3 2 3 4 5 5 8 8 9 10 12 12 12 9 3 3 8 7 8 7 3 3 1 1 3 2 3 2 2 3 6 5 2 1 4 5 2 8 9 9 10 10 10
2 2 2 3 4 5 4 6 8 9 9 10 11 13 14 3 3 2 10 8 6 3 3 1 0 1 2 2 2 2 4 4 5 3 3 3 5 6 11 6 5 7 7 10 12
2 2 3 4 5 6 5 8 8 9 9 10 10 11 4 3 3 4 10 8 3 2 4 1 1 1 3 3 2 1 3 5 6 10 9 12 10 7 9 6 5 6 8 11 11
5 4 4 5 6 5 8 8 9 9 10 9 9 9 3 4 2 4 8 5 9 4 5 3 3 2 6 3 2 2 2 4 7 7 9 7 5 1 5 4 6 7 9 11 12
5 5 5 5 4 7 9 8 9 10 10 9 7 3 1 5 3 4 4 3 3 2 3 5 3 1 2 4 2 2 3 7 6 5 4 8 5 5 5 4 6 7 9 10 10
6 6 6 4 7 10 8 7 8 10 9 8 5 3 4 1 2 2 1 3 3 4 5 3 5 6 2 4 2 2 3 5 4 2 3 10 2 7 5 6 6 6 8 8 9
6 6 5 8 10 9 6 8 9 9 7 6 3 4 5 1 2 2 3 2 2 3 4 3 2 3 3 3 3 3 6 4 5 3 1 3 1 8 7 7 7 7 7 7 8
5 4 7 11 9 5 6 6 3 6 3 3 2 4 3 3 2 1 2 3 1 3 3 1 2 3 2 4 7 3 5 3 5 2 3 3 3 8 9 10 9 8 7 6 6
6 9 11 9 4 3 4 3 4 4 1 3 3 4 4 3 1 4 3 1 1 2 2 2 5 4 1 1 1 2 3 5 2 1 4 2 5 10 11 10 10 9 8 6 4
10 11 10 5 2 2 3 2 3 3 7 3 2 3 2 1 2 6 4 3 2 2 1 4 4 2 5 4 4 3 5 6 1 0 4 4 10 10 13 12 11 10 9 7 5
11 10 7 4 3 2 1 2 2 3 2 3 2 3 3 1 2 5 5 0 1 3 1 4 4 5 4 5 5 4 7 4 3 1 2 7 9 12 14 11 11 10 8 6 6
9 7 5 4 2 2 2 2 2 2 4 4 2 3 2 2 3 3 5 2 2 2 2 1 2 6 5 5 4 6 2 1 3 4 5 2 5 8 13 15 14 14 11 9 7
7 7 6 6 4 2 2 2 1 2 5 3 3 2 2 0 3 4 3 2 2 3 3 4 3 5 6 1 2 3 1 3 4 6 6 6 5 4 9 14 16 15 12 9 8
8 9 9 3 1 2 3 2 3 4 2 4 2 3 4 2 2 3 2 5 2 1 0 2 1 1 2 2 1 3 3 1 1 3 5 5 4 4 6 8 13 15 12 10 8
7 8 2 1 2 3 2 2 4 4 1 4 2 2 2 2 2 4 3 2 2 4 6 3 3 2 2 4 4 4 5 3 4 4 3 4 5 9 3 6 10 16 13 11 7
7 6 6 4 4 3 2 4 5 2 2 2 2 3 3 1 2 1 1 3 3 2 2 5 5 2 3 2 2 0 3 4 5 4 4 3 6 0 1 4 9 12 10 7 6
10 2 2 5 6 2 4 5 2 1 2 4 3 4 4 2 2 2 0 1 1 2 3 3 3 2 4 2 3 4 4 3 3 1 4 3 5 7 4 9 11 13 11 8 4
2 1 3 11 6 3 4 1 1 1 0 2 5 3 3 4 4 4 3 2 2 1 3 2 3 1 3 1 4 4 3 3 3 4 5 4 6 8 9 13 13 15 14 10 4
1 2 3 7 3 3 4 2 2 2 1 2 3 3 2 3 3 2 1 3 0 2 1 0 2 4 2 6 4 3 3 2 3 4 4 7 4 3 1 5 12 14 14 12 8
2 2 4 3 3 1 2 2 1 2 1 1 1 1 2 2 2 2 0 2 2 0 1 2 2 4 1 3 2 3 3 5 4 4 3 4 9 3 2 3 5 9 11 12 9
1 2 1 3 2 3 3 2 2 1 1 1 2 1 0 2 2 1 2 2 1 0 0 2 2 3 4 3 2 6 5 5 2 1 10 8 7 4 3 1 3 7 10 11 10
2 2 2 2 2 3 5 3 3 1 2 2 2 1 2 2 2 2 4 2 0 1 4 1 3 6 7 3 1 4 8 10 10 5 10 14 22 18 9 7 9 9 10 10 12
3 2 2 2 3 3 1 4 4 4 1 2 2 3 3 4 3 3 3 4 2 5 1 2 5 4 10 9 8 11 14 11 17 21 11 22 19 20 17 18 16 8 6 7 10
2 3 2 3 3 4 1 3 4 3 2 2 2 3 3 2 2 2 5 4 3 6 4 2 2 2 5 1 4 11 17 18 22 23 23 26 26 21 10 3 5 4 7 10 11
2 1 2 1 2 2 2 4 4 5 2 3 1 2 2 1 2 3 1 2 0 2 7 3 2 2 5 2 7 11 18 15 11 13 12 14 11 5 6 8 9 9 9 10 11
Wind_Direction
138 119 117 132 133 265 278 289 299 303 305 312 315 319 322 325 312 216 56 347 314 317 314 284 280 18 75 73 34 312 240 75 92 117 106 40 7 50 48 74 60 48 18 331 333
165 140 153 197 227 260 274 291 297 298 302 306 309 315 321 328 282 73 13 313 315 327 314 351 15 15 82 65 30 358 340 70 50 66 84 43 16 339 245 79 65 36 29 13 18
172 191 183 217 248 262 273 295 288 291 297 302 306 313 319 316 233 59 344 328 322 323 309 321 338 31 81 51 27 44 51 106 80 86 349 287 77 27 180 62 40 9 17 28 41
162 162 214 253 261 266 277 284 281 286 292 299 307 314 324 284 174 29 328 343 326 317 274 320 2 109 108 115 62 164 88 49 62 350 197 133 97 78 55 79 45 40 31 45 51
247 229 250 263 265 264 281 272 277 282 290 298 308 316 271 167 83 346 326 2 46 328 29 21 83 137 128 104 126 105 89 68 92 85 95 102 83 102 80 74 81 78 65 60 58
267 259 264 261 261 277 272 270 277 285 289 297 309 314 240 177 358 333 335 342 32 39 38 23 65 59 96 76 7 70 34 80 113 125 135 119 113 203 84 115 101 88 76 68 62
259 263 268 260 280 281 267 272 282 288 290 298 306 283 211 83 350 350 9 34 5 39 97 53 53 314 115 122 88 113 161 136 106 170 120 139 119 99 121 142 117 105 94 82 73
247 267 262 305 293 268 266 282 288 285 293 294 298 264 77 39 348 34 40 91 76 62 79 55 73 91 27 122 134 204 214 202 89 176 129 200 263 154 161 168 140 124 110 100 85
245 257 301 292 269 265 283 292 285 284 281 279 239 262 122 115 138 20 7 78 92 85 70 86 74 74 159 205 205 203 272 230 171 79 237 239 109 165 180 188 169 154 135 122 110
248 279 272 260 258 278 298 278 285 291 207 207 252 195 163 115 48 359 54 54 93 145 153 147 117 163 164 222 275 249 251 221 252 108 278 267 181 168 180 193 183 168 158 152 136
256 249 244 242 253 304 277 190 172 144 111 28 78 75 106 93 210 54 7 160 169 208 216 51 232 233 203 171 149 189 231 259 252 21 288 243 201 189 185 195 191 188 180 174 158
230 225 224 221 241 261 246 259 26 13 109 44 74 85 68 21 132 48 340 223 212 200 203 208 246 116 126 152 174 213 255 257 182 138 281 263 258 203 193 201 198 192 196 190 190
213 207 198 187 167 197 266 90 335 277 101 75 35 78 87 227 71 25 344 59 84 186 212 269 88 144 182 176 216 229 263 259 303 250 241 293 255 200 206 204 202 212 212 213 228
190 183 172 144 184 143 130 15 312 290 192 130 141 96 121 144 98 1 10 335 154 222 177 283 100 198 203 225 249 267 151 171 276 291 289 308 305 194 195 209 210 209 209 217 227
164 164 164 202 115 171 50 316 271 247 211 122 117 59 91 350 108 54 23 251 223 152 226 104 170 176 216 301 223 33 5 301 278 262 294 182 241 123 188 216 213 211 211 221 227
159 159 161 181 148 40 312 265 235 230 200 139 120 157 169 86 76 339 56 53 39 159 20 95 44 333 28 98 53 123 215 208 187 212 237 139 233 207 187 232 205 202 201 200 200
147 155 215 329 88 337 275 217 210 254 141 145 144 175 182 124 101 21 29 52 291 214 197 163 162 104 341 220 186 236 256 239 212 210 355 150 221 278 227 222 203 185 188 185 193
154 147 64 47 347 308 227 213 239 83 173 110 131 122 221 132 100 59 168 191 77 273 230 226 191 197 11 344 356 68 291 303 290 288 345 159 236 116 359 187 178 176 179 186 208
145 99 82 17 348 275 232 213 357 112 95 166 145 208 182 189 276 197 302 152 63 343 270 222 164 130 43 3 310 129 227 19 283 221 261 216 241 195 175 169 177 187 192 196 218
127 115 58 338 326 239 235 77 111 57 121 229 221 235 217 183 217 213 188 111 148 334 312 118 226 163 113 230 71 280 106 227 192 271 267 213 274 270 193 199 201 208 213 209 232
141 176 35 336 261 215 241 113 128 91 289 257 219 180 208 198 233 208 114 124 273 92 344 230 287 114 205 203 193 158 206 209 298 267 287 298 280 48 337 217 217 224 227 227 241
163 180 12 290 179 16 156 88 38 132 103 117 64 93 212 172 186 215 296 43 36 251 289 38 305 245 256 110 343 291 262 237 252 195 244 299 273 109 261 278 264 247 240 230 247
130 85 83 274 216 145 120 101 57 134 50 134 125 342 159 168 221 183 150 67 69 205 284 160 197 268 185 180 181 233 206 237 196 268 237 270 273 150 142 208 238 257 266 233 257
180 163 102 71 18 162 157 153 143 109 128 108 125 154 153 150 50 159 167 148 108 115 88 253 267 263 275 353 30 222 212 212 219 240 270 235 278 287 261 284 292 281 267 256 289
5 86 357 138 118 124 122 147 152 165 132 205 151 219 184 174 180 195 169 165 175 160 132 258 259 253 271 274 257 264 260 226 225 239 252 270 282 285 302 313 309 311 285 273 283
164 164 133 87 130 149 162 154 160 150 188 174 232 155 199 237 327 172 178 215 213 179 206 190 266 294 283 212 255 269 269 250 245 256 263 266 278 287 296 329 313 293 288 290 297
115 116 271 113 150 215 106 138 160 152 99 43 96 157 199 32 16 47 77 48 266 220 196 218 243 288 277 317 292 267 254 248 232 235 250 255 286 349 291 308 298 304 292 294 306